Date String (YYYY-MM-DD hh:mm:ss) UTC,Instrument flags,absolute air pressure of the measurement (hPa),sample flow rate (lpm),inlet stack bypass flow (lpm),air temperature of the measurement (°C),ambient temperature measured by the external sensor (°C),aerosol sample conditioner tube jacket temperature (°C),OPC LED temperature (°C),internal box temperature (°C),relative humidity of the measurement (%),span deviation,mass concentration of particles derived from Lorenz-Mie calculation of OPC scattering (μg/m³),mass concentration of particles derived from Lorenz-Mie calculation of OPC scattering (μg/m³),mass concentration of particles derived from Lorenz-Mie calculation of OPC scattering (μg/m³)
DateTimeUTC,F1_M11,P_M11,Q1_M11,Q2_M11,T1_M11,T2_M11,T3_M11,T4_M11,T5_M11,U1_M11,ZSPAN_M11,X0_M11,X2_M11,X1_M11
2023-06-07 21:00:00,SystemResetWarning,0828.4,5.00,000.00,029.3,026.2,000.0,037.6,030.9,29.4,0000.0,0009.16,0004.66,0004.23
2023-06-07 21:01:00,SystemResetWarning,0828.4,5.01,000.00,029.3,025.3,000.0,037.6,030.9,30.4,0000.0,0009.25,0004.65,0004.23
2023-06-07 21:02:00,SystemResetWarning,0828.3,5.01,000.00,029.2,025.4,000.0,037.6,030.8,30.3,0000.0,0009.55,0004.68,0004.25
2023-06-07 21:03:00,SystemResetWarning,0828.4,5.01,000.00,029.2,025.8,000.0,037.6,030.7,30.9,0000.0,0009.91,0004.71,0004.27
2023-06-07 21:04:00,SystemResetWarning,0828.4,4.99,000.00,029.2,026.2,000.0,037.6,030.7,30.7,0000.0,0009.77,0004.79,0004.32
2023-06-07 21:05:00,SystemResetWarning,0828.4,5.00,000.00,029.2,026.6,000.0,037.6,030.8,30.3,0000.0,0009.70,0004.85,0004.38
2023-06-07 21:06:00,SystemResetWarning,0828.4,5.00,000.00,029.2,027.0,000.0,037.6,030.8,29.6,0000.0,0010.59,0004.93,0004.44
2023-06-07 21:07:00,SystemResetWarning,0828.4,4.99,000.00,029.2,027.3,000.0,037.7,030.9,29.5,0000.0,0010.73,0004.98,0004.49
2023-06-07 21:08:00,SystemResetWarning,0828.4,5.00,000.00,029.3,027.6,000.0,037.7,030.9,30.0,0000.0,0012.03,0005.03,0004.54
2023-06-07 21:09:00,SystemResetWarning,0828.4,4.99,000.00,029.3,027.2,000.0,037.7,031.0,30.4,0000.0,0011.96,0005.07,0004.57
2023-06-07 21:10:00,SystemResetWarning,0828.4,5.00,000.00,029.3,025.2,000.0,037.6,030.9,29.4,0000.0,0011.99,0005.10,0004.57
2023-06-07 21:11:00,SystemResetWarning,0828.3,5.00,000.00,029.3,024.3,000.0,037.6,030.8,28.9,0000.0,0012.30,0005.09,0004.56
2023-06-07 21:12:00,SystemResetWarning,0828.3,5.01,000.00,029.2,024.5,000.0,037.6,030.6,29.6,0000.0,0013.07,0005.07,0004.55
2023-06-07 21:13:00,SystemResetWarning,0828.3,5.00,000.00,029.1,024.9,000.0,037.6,030.5,30.6,0000.0,0013.33,0005.03,0004.53
2023-06-07 21:14:00,SystemResetWarning,0828.3,4.99,000.00,029.0,025.4,000.0,037.6,030.5,30.5,0000.0,0012.68,0005.02,0004.51
2023-06-07 21:15:00,SystemResetWarning,0828.3,5.00,000.00,029.0,025.9,000.0,037.6,030.6,30.3,0000.0,0012.62,0004.97,0004.47
2023-06-07 21:16:00,SystemResetWarning,0828.3,5.01,000.00,029.1,026.4,000.0,037.6,030.6,28.8,0000.0,0012.55,0004.94,0004.43
2023-06-07 21:17:00,SystemResetWarning,0828.3,4.99,000.00,029.1,026.8,000.0,037.6,030.6,30.1,0000.0,0011.62,0004.88,0004.38
2023-06-07 21:18:00,SystemResetWarning,0828.3,4.99,000.00,029.1,027.1,000.0,037.6,030.7,29.3,0000.0,0011.92,0004.84,0004.32
2023-06-07 21:19:00,SystemResetWarning,0828.3,4.99,000.00,029.1,027.4,000.0,037.6,030.7,29.7,0000.0,0010.80,0004.81,0004.28
2023-06-07 21:20:00,SystemResetWarning,0828.3,5.00,000.00,029.2,027.6,000.0,037.6,030.8,30.9,0000.0,0010.76,0004.80,0004.24
2023-06-07 21:21:00,SystemResetWarning,0828.3,5.01,000.00,029.2,027.8,000.0,037.6,030.8,29.9,0000.0,0010.88,0004.82,0004.25
2023-06-07 21:22:00,SystemResetWarning,0828.3,4.99,000.00,029.2,027.0,000.0,037.6,030.9,29.2,0000.0,0010.78,0004.87,0004.27
2023-06-07 21:23:00,SystemResetWarning,0828.2,5.02,000.00,029.2,025.5,000.0,037.6,030.9,28.8,0000.0,0010.89,0004.92,0004.30
2023-06-07 21:24:00,SystemResetWarning,0828.2,5.01,000.00,029.2,025.4,000.0,037.6,030.9,30.4,0000.0,0010.77,0005.02,0004.33
2023-06-07 21:25:00,SystemResetWarning,0828.2,4.99,000.00,029.2,025.7,000.0,037.6,030.7,30.3,0000.0,0011.36,0005.07,0004.37
2023-06-07 21:26:00,SystemResetWarning,0828.2,5.00,000.00,029.1,026.1,000.0,037.6,030.7,30.3,0000.0,0011.83,0005.09,0004.40
2023-06-07 21:27:00,SystemResetWarning,0828.2,5.01,000.00,029.1,026.5,000.0,037.6,030.7,29.8,0000.0,0012.09,0005.10,0004.44
2023-06-07 21:28:00,SystemResetWarning,0828.2,5.00,000.00,029.2,026.9,000.0,037.6,030.8,32.1,0000.0,0012.12,0005.15,0004.48
2023-06-07 21:29:00,SystemResetWarning,0828.2,5.00,000.00,029.2,027.2,000.0,037.6,030.8,32.8,0000.0,0012.10,0005.21,0004.53
2023-06-07 21:30:00,SystemResetWarning,0828.3,5.00,000.00,029.2,027.5,000.0,037.6,030.9,30.6,0000.0,0012.50,0005.25,0004.59
2023-06-07 21:31:00,SystemResetWarning,0828.3,4.99,000.00,029.3,027.6,000.0,037.7,031.0,30.9,0000.0,0012.52,0005.26,0004.65
2023-06-07 21:32:00,SystemResetWarning,0828.3,4.98,000.00,029.3,026.2,000.0,037.6,031.0,31.2,0000.0,0012.83,0005.30,0004.71
2023-06-07 21:33:00,SystemResetWarning,0828.3,5.02,000.00,029.3,025.3,000.0,037.6,031.0,32.0,0000.0,0012.95,0005.36,0004.76
2023-06-07 21:34:00,SystemResetWarning,0828.3,5.00,000.00,029.3,025.5,000.0,037.6,030.8,30.7,0000.0,0012.12,0005.39,0004.82
2023-06-07 21:35:00,SystemResetWarning,0828.3,4.99,000.00,029.2,025.8,000.0,037.6,030.7,31.2,0000.0,0012.09,0005.44,0004.88
2023-06-07 21:36:00,SystemResetWarning,0828.2,5.00,000.00,029.2,026.3,000.0,037.6,030.8,30.6,0000.0,0012.06,0005.48,0004.94
2023-06-07 21:37:00,SystemResetWarning,0828.2,5.00,000.00,029.2,026.7,000.0,037.6,030.8,30.4,0000.0,0011.74,0005.54,0004.98
2023-06-07 21:38:00,SystemResetWarning,0828.2,5.00,000.00,029.2,027.0,000.0,037.6,030.8,30.3,0000.0,0011.35,0005.61,0005.01
2023-06-07 21:39:00,SystemResetWarning,0828.2,5.00,000.00,029.2,027.3,000.0,037.7,030.8,29.9,0000.0,0011.59,0005.62,0005.04
2023-06-07 21:40:00,SystemResetWarning,0828.2,5.00,000.00,029.3,027.6,000.0,037.7,030.9,31.2,0000.0,0011.26,0005.63,0005.07
2023-06-07 21:41:00,SystemResetWarning,0828.1,4.98,000.00,029.3,027.2,000.0,037.7,031.0,29.9,0000.0,0010.71,0005.62,0005.05
2023-06-07 21:53:00,SystemResetWarning,0828.0,5.01,000.00,029.2,025.1,000.0,037.6,030.7,27.8,0000.0,0011.28,0005.01,0004.39
2023-06-07 21:54:00,SystemResetWarning,0828.1,5.00,000.00,029.2,025.3,000.0,037.6,030.6,27.9,0000.0,0011.19,0004.96,0004.37
2023-06-07 21:55:00,SystemResetWarning,0828.1,5.00,000.00,029.1,025.7,000.0,037.6,030.5,28.2,0000.0,0012.00,0004.90,0004.32
2023-06-07 21:56:00,SystemResetWarning,0828.0,5.00,000.00,029.1,026.1,000.0,037.6,030.6,28.4,0000.0,0011.46,0004.83,0004.27
2023-06-07 21:57:00,SystemResetWarning,0828.1,4.99,000.00,029.1,026.5,000.0,037.6,030.6,29.1,0000.0,0011.80,0004.81,0004.23
2023-06-07 21:58:00,SystemResetWarning,0828.1,5.00,000.00,029.1,026.8,000.0,037.6,030.6,29.0,0000.0,0010.81,0004.79,0004.18
2023-06-07 21:59:00,SystemResetWarning,0828.1,5.00,000.00,029.1,027.1,000.0,037.6,030.6,28.6,0000.0,0011.45,0004.77,0004.15
